Starlink 31146

operational
NORAD ID: 58769 Int'l Des: 2024-011 Owner: SPXS Country: US Constellation: starlink
LEOCIRCULAR

About Starlink 31146

Description loading...

Live Position

Loading 3D Globe...

Upcoming Passes

Altitude History

Altitude vs Time

uPlot chart will show altitude changes over time

Two-Line Element Set

1 58769U 24011E 25352.51904429 .00000813 00000-0 39588-4 0 9993
2 58769 53.1611 30.6397 0001258 78.4900 281.6242 15.30192396107840
Epoch: Dec 18, 2025 • Age: 19 hours

Current Status

Altitude 479.6 km
Velocity 7.63 km/s
Sub-Earth Point 46.57°N, 49.69°W
Launch Date Jan 14, 2024
Age 1.9 years
Type internet

Technical Details

Classification Payload
Mass 730.00 kg
Dry Mass 700.00 kg
Total Mass 730.00 kg
Length 0.30 m
Diameter 4.10 m
Span 29.00 m
Shape Box + pan
Manufacturer SPXS
Bus Type Starlink V2M
Phase Status In Orbit
Owner/State SPXS/US

Large Constellations

Loading constellations...